Estación de El Cardal INIA

Ultimos registro cada 15 minutos 85
Estación Fecha / Hora Temperatura Humedad Lluvia Velocidad Dirección Radiación Presion
85 El Cardal INIA 09-05-2026 21:00 4,7 90,4 0 0 0 0 1017
84 El Cardal INIA 09-05-2026 20:45 4,8 91,2 0 0 0 0 1017
83 El Cardal INIA 09-05-2026 20:30 5 88,9 0 0 0 0 1017
82 El Cardal INIA 09-05-2026 20:15 5,2 89,1 0 0 0 0 1017
81 El Cardal INIA 09-05-2026 20:00 5,7 89,3 0 0 0 0 1017
80 El Cardal INIA 09-05-2026 19:45 6,1 88,9 0 0 0 0 1017
79 El Cardal INIA 09-05-2026 19:30 6,5 84,2 0 0 0 0 1017
78 El Cardal INIA 09-05-2026 19:15 7,2 83,5 0 0 0 0 1017
77 El Cardal INIA 09-05-2026 19:00 7,4 80,9 0 0 0 0 1017
76 El Cardal INIA 09-05-2026 18:45 7,6 78,2 0 0 0 0 1016
75 El Cardal INIA 09-05-2026 18:30 8,1 75,7 0 0 0 0 1016
74 El Cardal INIA 09-05-2026 18:15 8,9 70,5 0 0 0 2 1017
73 El Cardal INIA 09-05-2026 18:00 10 65,8 0 0 292 9 1017
72 El Cardal INIA 09-05-2026 17:45 10,7 64,4 0 0 0 18 1017
71 El Cardal INIA 09-05-2026 17:30 11,7 63 0 0 0 27 1016
70 El Cardal INIA 09-05-2026 17:15 12,8 59 0 0,1 249 52 1017
69 El Cardal INIA 09-05-2026 17:00 13,9 54,8 0 0 237 144 1017
68 El Cardal INIA 09-05-2026 16:45 13,9 52,5 0 0 164 183 1017
67 El Cardal INIA 09-05-2026 16:30 13,9 56,5 0 0 215 203 1017
66 El Cardal INIA 09-05-2026 16:15 14,2 57,9 0 0 1 236 1017
65 El Cardal INIA 09-05-2026 16:00 14,2 53,6 0 0 99 272 1017
64 El Cardal INIA 09-05-2026 15:45 13,7 53,2 0 0,1 224 309 1017
63 El Cardal INIA 09-05-2026 15:30 13,6 59,4 0 0,4 225 323 1017
62 El Cardal INIA 09-05-2026 15:15 13,8 56,9 0 0 266 311 1017
61 El Cardal INIA 09-05-2026 15:00 13,7 54,6 0 0,1 133 331 1017
60 El Cardal INIA 09-05-2026 14:45 13,7 61,8 0 0,2 252 432 1017
59 El Cardal INIA 09-05-2026 14:30 13,6 58,4 0 0 0 455 1017
58 El Cardal INIA 09-05-2026 14:15 13 60 0 0,3 230 470 1018
57 El Cardal INIA 09-05-2026 14:00 12,8 64,2 0 0,3 248 469 1018
56 El Cardal INIA 09-05-2026 13:45 12,1 64,7 0 0 233 481 1018
55 El Cardal INIA 09-05-2026 13:30 11,4 73,5 0 0 0 521 1018
54 El Cardal INIA 09-05-2026 13:15 10 75,5 0 0 0 526 1019
53 El Cardal INIA 09-05-2026 13:00 9,5 80,1 0 0 0 509 1019
52 El Cardal INIA 09-05-2026 12:45 8,6 82,1 0 0 0 520 1019
51 El Cardal INIA 09-05-2026 12:30 8,2 90,9 0 0 0 526 1019
50 El Cardal INIA 09-05-2026 12:15 7,2 95,3 0 0 0 469 1019
49 El Cardal INIA 09-05-2026 12:00 6,4 97,5 0 0 0 473 1020
48 El Cardal INIA 09-05-2026 11:45 5,1 99,8 0 0 247 358 1020
47 El Cardal INIA 09-05-2026 11:30 4,5 99,2 0 0 0 360 1020
46 El Cardal INIA 09-05-2026 11:15 3,9 100 0 0 0 283 1020
45 El Cardal INIA 09-05-2026 11:00 3,4 100 0 0 0 268 1020
44 El Cardal INIA 09-05-2026 10:45 3 100 0 0 0 268 1020
43 El Cardal INIA 09-05-2026 10:30 2,4 100 0,1 0 0 189 1020
42 El Cardal INIA 09-05-2026 10:15 2,1 100 0 0 0 195 1020
41 El Cardal INIA 09-05-2026 10:00 1,7 100 0 0 0 154 1020
40 El Cardal INIA 09-05-2026 09:45 1,3 100 0 0 0 133 1020
39 El Cardal INIA 09-05-2026 09:30 1,2 100 0 0 0 94 1020
38 El Cardal INIA 09-05-2026 09:15 0,8 100 0 0 0 73 1020
37 El Cardal INIA 09-05-2026 09:00 0,4 100 0 0 0 59 1020
36 El Cardal INIA 09-05-2026 08:45 0,2 100 0 0 0 40 1020
35 El Cardal INIA 09-05-2026 08:30 0 100 0 0 0 27 1020
34 El Cardal INIA 09-05-2026 08:15 0,1 100 0 0 0 14 1020
33 El Cardal INIA 09-05-2026 08:00 0 100 0 0 0 5 1020
32 El Cardal INIA 09-05-2026 07:45 -0,2 100 0 0 0 1 1020
31 El Cardal INIA 09-05-2026 07:30 -0,1 100 0 0 0 0 1020
30 El Cardal INIA 09-05-2026 07:15 -0,2 100 0 0 0 0 1020
29 El Cardal INIA 09-05-2026 07:00 -0,3 100 0 0 0 0 1020
28 El Cardal INIA 09-05-2026 06:45 -0,6 100 0 0 0 0 1020
27 El Cardal INIA 09-05-2026 06:30 -0,8 100 0 0 0 0 1020
26 El Cardal INIA 09-05-2026 06:15 -1 100 0 0 0 0 1020
25 El Cardal INIA 09-05-2026 06:00 -1,1 100 0 0 54 0 1020
24 El Cardal INIA 09-05-2026 05:45 -1,3 100 0 0,2 65 0 1020
23 El Cardal INIA 09-05-2026 05:30 -1,4 100 0 0 0 0 1020
22 El Cardal INIA 09-05-2026 05:15 -1,7 100 0 0,3 18 0 1020
21 El Cardal INIA 09-05-2026 05:00 -1,2 100 0 0,6 94 0 1020
20 El Cardal INIA 09-05-2026 04:45 -0,4 100 0 0 0 0 1020
19 El Cardal INIA 09-05-2026 04:30 -0,8 100 0 0,1 39 0 1020
18 El Cardal INIA 09-05-2026 04:15 -0,6 100 0 0,3 44 0 1020
17 El Cardal INIA 09-05-2026 04:00 0 100 0 0 0 0 1020
16 El Cardal INIA 09-05-2026 03:45 0 100 0 0 0 0 1021
15 El Cardal INIA 09-05-2026 03:30 0,1 100 0 0 0 0 1021
14 El Cardal INIA 09-05-2026 03:15 -0,1 99,8 0 0 0 0 1021
13 El Cardal INIA 09-05-2026 03:00 -0,4 100 0 0 0 0 1021
12 El Cardal INIA 09-05-2026 02:45 0,1 99,5 0 0 175 0 1021
11 El Cardal INIA 09-05-2026 02:30 0,5 99,3 0 0,2 241 0 1021
10 El Cardal INIA 09-05-2026 02:15 0,6 99,8 0 0 0 0 1021
9 El Cardal INIA 09-05-2026 02:00 1,1 99,7 0 0,1 226 0 1021
8 El Cardal INIA 09-05-2026 01:45 1 99,6 0 0 0 0 1021
7 El Cardal INIA 09-05-2026 01:30 1,8 99 0 0 0 0 1021
6 El Cardal INIA 09-05-2026 01:15 1,9 99,7 0 0 255 0 1021
5 El Cardal INIA 09-05-2026 01:00 1,5 100 0 0,1 254 0 1021
4 El Cardal INIA 09-05-2026 00:45 1,4 98,7 0 0 0 0 1021
3 El Cardal INIA 09-05-2026 00:30 1,3 98,4 0 0,1 44 0 1021
2 El Cardal INIA 09-05-2026 00:15 2,4 96,7 0 0 0 0 1021
1 El Cardal INIA 09-05-2026 00:00 2 99,4 0 0 0 0 1021